Regional Weather Roundup
Issued by NWS

Home | Current Version | Previous Version | Graphics & Text | Print | Product List | Glossary On
Versions: 1 2 3 4 5 6 7 8 9 10 11 12 13 14 15 16 17 18 19 20 21 22 23 24 25 26 27 28 29 30 31 32 33 34 35 36 37 38 39 40 41 42 43 44 45 46 47 48 49 50
000
ASUS43 KIND 250209
RWRIN

WEATHER ROUNDUP FOR INDIANA
NATIONAL WEATHER SERVICE INDIANAPOLIS IN
1000 PM EDT MON APR 24 2017

NOTE: "FAIR" INDICATES FEW OR NO CLOUDS BELOW 12,000 FEET WITH NO
SIGNIFICANT WEATHER AND/OR OBSTRUCTIONS TO VISIBILITY.

* - STATION DOES NOT REPORT WEATHER SUCH AS PRECIPITATION OR FOG.

+ - STATION NOT QUALITY CONTROLLED BY THE NATIONAL WEATHER SERVICE.
    USE DATA WITH CAUTION...ESPECIALLY DEWPOINT AND RELATIVE
    HUMIDITY OBSERVATIONS.

INZ001>003-010>013-019-020-250300-
NORTHWEST INDIANA

CITY           SKY/WX    TMP DP  RH WIND       PRES   REMARKS
GARY /AIRPORT/ MOCLDY    50  43  76 CALM      29.78F
KNOX *+        PTCLDY    59   9  13 E8        29.80S
LA PORTE +     CLOUDY    60  36  41 E9        29.82R
MICHIGAN CITY+ CLOUDY    63  32  31 CALM      29.81S
MONTICELLO +   CLEAR     65  36  34 E8        29.78R
RENSSELAER +   CLEAR     59  36  41 E9        29.79S
VALPARAISO     CLOUDY    60  38  43 E9        29.80S

$$

LMZ046-743>745-250300-
SOUTHERN LAKE MICHIGAN

STATION/POSITION TIME  TEMP    WIND        PRES    WAVE
                       AIR SEA DIR/SP/G            HT
                 (UTC) (F)     (DEG/KT/KT) (MB)    (FT)
BURNS HARBOR     0140   67     110/ 11/ 16 1009.1S
MICHIGAN CITY    0140   66      90/  8/ 10   N/A

$$

INZ004-005-014>016-021>024-250300-
NORTH CENTRAL INDIANA

CITY           SKY/WX    TMP DP  RH WIND       PRES   REMARKS
GOSHEN         CLEAR     57  33  40 E7        29.84R
LOGANSPORT +   CLEAR     63  37  39 E10       29.80S
PERU/GRISSOM   CLEAR     63  40  41 E12       29.78S
ROCHESTER +    CLEAR     61  37  41 E8        29.82S
SOUTH BEND     CLOUDY    62  34  35 E14       29.83S
WARSAW +       CLEAR     57  36  44 E8        29.83R

$$

INZ006>009-017-018-025>027-250300-
NORTHEAST INDIANA

CITY           SKY/WX    TMP DP  RH WIND       PRES   REMARKS
ANGOLA *+      CLEAR     55  36  47 E15       29.85S
AUBURN +       CLEAR     57  36  44 E10       29.85S
FORT WAYNE     PTCLDY    59  37  44 E14       29.83S
HUNTINGTON +   CLEAR     59  37  42 E10       29.82S
KENDALLVILLE + CLEAR     57  35  42 E12G20    29.85S

$$

INZ028-029-035-036-043>045-051>053-250300-
WEST CENTRAL INDIANA

CITY           SKY/WX    TMP DP  RH WIND       PRES   REMARKS
CRAWFORDSVL +  CLEAR     60  41  50 NE5       29.76S
GREENCASTLE +  CLEAR     61  45  55 E5        29.77R
LAFAYETTE      CLEAR     61  39  44 NE6       29.77R
TERRE HAUTE    CLEAR     59  46  62 CALM      29.75S

$$

INZ030>032-037>040-046>048-054>057-064-065-250300-
CENTRAL INDIANA

CITY           SKY/WX    TMP DP  RH WIND       PRES   REMARKS
CP ATTERBURY + CLEAR     63  52  67 E7        29.78S
COLUMBUS       PTCLDY    64  46  52 E12       29.79R
FISHERS *+     CLEAR     64  54  68 SE8       29.78
FRANKFORT +    CLEAR     67  38  35 E12       29.79S
GREENWOOD *+   CLEAR     66  50  55 SE5       29.79R
INDIANAPOLIS   PTCLDY    67  51  56 E15       29.76F
-EAGLE CREEK   CLEAR     69  50  50 SE16G22   29.76S
KOKOMO +       CLEAR     61  42  49 E10       29.80S
MARION +       CLEAR     61  41  48 E10       29.80S
MT COMFORT *+  CLEAR     64  52  63 SE9       29.79S
SHELBYVILLE    CLEAR     67  50  54 SE12      29.79R
ZIONSVILLE +   CLEAR     62  41  46 E5        29.78S

$$

INZ033-034-041-042-049-050-058-059-250300-
EAST CENTRAL INDIANA

CITY           SKY/WX    TMP DP  RH WIND       PRES   REMARKS
MUNCIE         CLEAR     66  51  58 SE14      29.80R
RICHMOND +     CLEAR     59  50  72 E10       29.84R

$$

INZ060-061-067>069-081>083-085>088-250300-
SOUTHWEST INDIANA

CITY           SKY/WX    TMP DP  RH WIND       PRES   REMARKS
EVANSVILLE     CLEAR     66  48  52 CALM      29.74R
HUNTINGBURG *+ CLEAR     63  50  62 SE6       29.75R
WASHINGTON +   CLEAR     63  47  56 MISG      29.74S

$$

INZ062-063-066-070>080-084-089>092-250300-
SOUTH CENTRAL AND SOUTHEAST INDIANA

CITY           SKY/WX    TMP DP  RH WIND       PRES   REMARKS
BLOOMINGTON    CLOUDY    70  50  49 E6        29.76S
MADISON *+     MOCLDY    63  50  63 E3        29.82R
NORTH VERNON + CLEAR     64  52  63 SE3       29.81
SEYMOUR +      CLOUDY    68  52  56 SE13      29.78R

$$




USA.gov is the U.S. government's official web portal to all federal, state and local government web resources and services.